Year,Month,Day,Hour,Minute,Value (Times are PST for temperature in C)
2018,06,27,00,00,12.80
2018,06,27,00,01,12.80
2018,06,27,00,02,12.80
2018,06,27,00,03,12.80
2018,06,27,00,04,12.80
2018,06,27,00,05,12.80
2018,06,27,00,06,12.80
2018,06,27,00,07,12.80
2018,06,27,00,08,12.80
2018,06,27,00,09,12.80
2018,06,27,00,10,12.80
2018,06,27,00,11,12.80
2018,06,27,00,12,12.70
2018,06,27,00,13,12.70
2018,06,27,00,14,12.60
2018,06,27,00,15,12.60
2018,06,27,00,16,12.50
2018,06,27,00,17,12.40
2018,06,27,00,18,12.40
2018,06,27,00,19,12.30
2018,06,27,00,20,12.30
2018,06,27,00,21,12.30
2018,06,27,00,22,12.30
2018,06,27,00,23,12.20
2018,06,27,00,24,12.20
2018,06,27,00,25,12.20
2018,06,27,00,26,12.20
2018,06,27,00,27,12.20
2018,06,27,00,28,12.20
2018,06,27,00,29,12.10
2018,06,27,00,30,12.10
2018,06,27,00,31,12.10
2018,06,27,00,32,12.00
2018,06,27,00,33,12.00
2018,06,27,00,34,11.90
2018,06,27,00,35,11.90
2018,06,27,00,36,11.90
2018,06,27,00,37,11.90
2018,06,27,00,38,11.80
2018,06,27,00,39,11.80
2018,06,27,00,40,11.80
2018,06,27,00,41,11.80
2018,06,27,00,42,11.80
2018,06,27,00,43,11.70
2018,06,27,00,44,11.70
2018,06,27,00,45,11.70
2018,06,27,00,46,11.70
2018,06,27,00,47,11.70
2018,06,27,00,48,11.70
2018,06,27,00,49,11.70
2018,06,27,00,50,11.70
2018,06,27,00,51,11.70
2018,06,27,00,52,11.70
2018,06,27,00,53,11.70
2018,06,27,00,54,11.70
2018,06,27,00,55,11.70
2018,06,27,00,56,11.60
2018,06,27,00,57,11.60
2018,06,27,00,58,11.60
2018,06,27,00,59,11.50
2018,06,27,01,00,11.50
2018,06,27,01,01,11.50
2018,06,27,01,02,11.50
2018,06,27,01,03,11.40
2018,06,27,01,04,11.40
2018,06,27,01,05,11.40
2018,06,27,01,06,11.40
2018,06,27,01,07,11.40
2018,06,27,01,08,11.40
2018,06,27,01,09,11.30
2018,06,27,01,10,11.30
2018,06,27,01,11,11.30
2018,06,27,01,12,11.30
2018,06,27,01,13,11.30
2018,06,27,01,14,11.30
2018,06,27,01,15,11.20
2018,06,27,01,16,11.20
2018,06,27,01,17,11.20
2018,06,27,01,18,11.20
2018,06,27,01,19,11.20
2018,06,27,01,20,11.10
2018,06,27,01,21,11.10
2018,06,27,01,22,11.10
2018,06,27,01,23,11.10
2018,06,27,01,24,11.00
2018,06,27,01,25,11.00
2018,06,27,01,26,11.00
2018,06,27,01,27,10.90
2018,06,27,01,28,10.90
2018,06,27,01,29,10.90
2018,06,27,01,30,10.90
2018,06,27,01,31,10.80
2018,06,27,01,32,10.80
2018,06,27,01,33,10.80
2018,06,27,01,34,10.80
2018,06,27,01,35,10.80
2018,06,27,01,36,10.80
2018,06,27,01,37,10.70
2018,06,27,01,38,10.70
2018,06,27,01,39,10.70
2018,06,27,01,40,10.70
2018,06,27,01,41,10.70
2018,06,27,01,42,10.60
2018,06,27,01,43,10.60
2018,06,27,01,44,10.60
2018,06,27,01,45,10.60
2018,06,27,01,46,10.60
2018,06,27,01,47,10.50
2018,06,27,01,48,10.50
2018,06,27,01,49,10.50
2018,06,27,01,50,10.50
2018,06,27,01,51,10.40
2018,06,27,01,52,10.40
2018,06,27,01,53,10.40
2018,06,27,01,54,10.40
2018,06,27,01,55,10.40
2018,06,27,01,56,10.40
2018,06,27,01,57,10.40
2018,06,27,01,58,10.40
2018,06,27,01,59,10.40
2018,06,27,02,00,10.30
2018,06,27,02,01,10.30
2018,06,27,02,02,10.30
2018,06,27,02,03,10.30
2018,06,27,02,04,10.30
2018,06,27,02,05,10.30
2018,06,27,02,06,10.30
2018,06,27,02,07,10.30
2018,06,27,02,08,10.30
2018,06,27,02,09,10.30
2018,06,27,02,10,10.30
2018,06,27,02,11,10.30
2018,06,27,02,12,10.30
2018,06,27,02,13,10.30
2018,06,27,02,14,10.30
2018,06,27,02,15,10.30
2018,06,27,02,16,10.30
2018,06,27,02,17,10.30
2018,06,27,02,18,10.30
2018,06,27,02,19,10.30
2018,06,27,02,20,10.30
2018,06,27,02,21,10.30
2018,06,27,02,22,10.30
2018,06,27,02,23,10.30
2018,06,27,02,24,10.30
2018,06,27,02,25,10.30
2018,06,27,02,26,10.30
2018,06,27,02,27,10.30
2018,06,27,02,28,10.30
2018,06,27,02,29,10.30
2018,06,27,02,30,10.30
2018,06,27,02,31,10.30
2018,06,27,02,32,10.30
2018,06,27,02,33,10.30
2018,06,27,02,34,10.40
2018,06,27,02,35,10.40
2018,06,27,02,36,10.40
2018,06,27,02,37,10.40
2018,06,27,02,38,10.40
2018,06,27,02,39,10.40
2018,06,27,02,40,10.40
2018,06,27,02,41,10.40
2018,06,27,02,42,10.40
2018,06,27,02,43,10.50
2018,06,27,02,44,10.50
2018,06,27,02,45,10.50
2018,06,27,02,46,10.50
2018,06,27,02,47,10.50
2018,06,27,02,48,10.50
2018,06,27,02,49,10.50
2018,06,27,02,50,10.50
2018,06,27,02,51,10.60
2018,06,27,02,52,10.60
2018,06,27,02,53,10.60
2018,06,27,02,54,10.60
2018,06,27,02,55,10.60
2018,06,27,02,56,10.60
2018,06,27,02,57,10.60
2018,06,27,02,58,10.60
2018,06,27,02,59,10.60
2018,06,27,03,00,10.60
2018,06,27,03,01,10.60
2018,06,27,03,02,10.70
2018,06,27,03,03,10.70
2018,06,27,03,04,10.70
2018,06,27,03,05,10.70
2018,06,27,03,06,10.70
2018,06,27,03,07,10.70
2018,06,27,03,08,10.70
2018,06,27,03,09,10.70
2018,06,27,03,10,10.70
2018,06,27,03,11,10.70
2018,06,27,03,12,10.70
2018,06,27,03,13,10.70
2018,06,27,03,14,10.80
2018,06,27,03,15,10.80
2018,06,27,03,16,10.80
2018,06,27,03,17,10.80
2018,06,27,03,18,10.80
2018,06,27,03,19,10.80
2018,06,27,03,20,10.80
2018,06,27,03,21,10.80
2018,06,27,03,22,10.80
2018,06,27,03,23,10.80
2018,06,27,03,24,10.80
2018,06,27,03,25,10.80
2018,06,27,03,26,10.90
2018,06,27,03,27,10.90
2018,06,27,03,28,10.90
2018,06,27,03,29,10.90
2018,06,27,03,30,10.90
2018,06,27,03,31,10.90
2018,06,27,03,32,10.90
2018,06,27,03,33,10.90
2018,06,27,03,34,10.90
2018,06,27,03,35,10.90
2018,06,27,03,36,10.90
2018,06,27,03,37,10.90
2018,06,27,03,38,10.90
2018,06,27,03,39,10.90
2018,06,27,03,40,10.90
2018,06,27,03,41,10.90
2018,06,27,03,42,10.90
2018,06,27,03,43,10.90
2018,06,27,03,44,10.90
2018,06,27,03,45,10.90
2018,06,27,03,46,10.90
2018,06,27,03,47,10.90
2018,06,27,03,48,10.90
2018,06,27,03,49,10.90
2018,06,27,03,50,10.90
2018,06,27,03,51,10.90
2018,06,27,03,52,10.90
2018,06,27,03,53,10.90
2018,06,27,03,54,10.90
2018,06,27,03,55,10.90
2018,06,27,03,56,10.90
2018,06,27,03,57,10.90
2018,06,27,03,58,10.90
2018,06,27,03,59,10.90
2018,06,27,04,00,10.90
2018,06,27,04,01,10.90
2018,06,27,04,02,10.90
2018,06,27,04,03,10.90
2018,06,27,04,04,10.90
2018,06,27,04,05,10.90
2018,06,27,04,06,10.90
2018,06,27,04,07,10.90
2018,06,27,04,08,10.90
2018,06,27,04,09,10.90
2018,06,27,04,10,10.90
2018,06,27,04,11,10.90
2018,06,27,04,12,10.90
2018,06,27,04,13,10.90
2018,06,27,04,14,10.90
2018,06,27,04,15,10.90
2018,06,27,04,16,10.90
2018,06,27,04,17,10.90
2018,06,27,04,18,10.80
2018,06,27,04,19,10.80
2018,06,27,04,20,10.80
2018,06,27,04,21,10.80
2018,06,27,04,22,10.80
2018,06,27,04,23,10.80
2018,06,27,04,24,10.80
2018,06,27,04,25,10.80
2018,06,27,04,26,10.80
2018,06,27,04,27,10.80
2018,06,27,04,28,10.80
2018,06,27,04,29,10.80
2018,06,27,04,30,10.80
2018,06,27,04,31,10.80
2018,06,27,04,32,10.80
2018,06,27,04,33,10.80
2018,06,27,04,34,10.80
2018,06,27,04,35,10.80
2018,06,27,04,36,10.80
2018,06,27,04,37,10.80
2018,06,27,04,38,10.80
2018,06,27,04,39,10.80
2018,06,27,04,40,10.80
2018,06,27,04,41,10.80
2018,06,27,04,42,10.80
2018,06,27,04,43,10.80
2018,06,27,04,44,10.80
2018,06,27,04,45,10.80
2018,06,27,04,46,10.80
2018,06,27,04,47,10.80
2018,06,27,04,48,10.80
2018,06,27,04,49,10.80
2018,06,27,04,50,10.80
2018,06,27,04,51,10.80
2018,06,27,04,52,10.80
2018,06,27,04,53,10.80
2018,06,27,04,54,10.80
2018,06,27,04,55,10.80
2018,06,27,04,56,10.80
2018,06,27,04,57,10.80
2018,06,27,04,58,10.80
2018,06,27,04,59,10.80
2018,06,27,05,00,10.80
2018,06,27,05,01,10.80
2018,06,27,05,02,10.80
2018,06,27,05,03,10.80
2018,06,27,05,04,10.80
2018,06,27,05,05,10.80
2018,06,27,05,06,10.80
2018,06,27,05,07,10.80
2018,06,27,05,08,10.80
2018,06,27,05,09,10.80
2018,06,27,05,10,10.80
2018,06,27,05,11,10.80
2018,06,27,05,12,10.80
2018,06,27,05,13,10.80
2018,06,27,05,14,10.80
2018,06,27,05,15,10.80
2018,06,27,05,16,10.80
2018,06,27,05,17,10.80
2018,06,27,05,18,10.80
2018,06,27,05,19,10.80
2018,06,27,05,20,10.80
2018,06,27,05,21,10.80
2018,06,27,05,22,10.80
2018,06,27,05,23,10.80
2018,06,27,05,24,10.70
2018,06,27,05,25,10.70
2018,06,27,05,26,10.70
2018,06,27,05,27,10.70
2018,06,27,05,28,10.70
2018,06,27,05,29,10.70
2018,06,27,05,30,10.70
2018,06,27,05,31,10.70
2018,06,27,05,32,10.70
2018,06,27,05,33,10.70
2018,06,27,05,34,10.70
2018,06,27,05,35,10.70
2018,06,27,05,36,10.70
2018,06,27,05,37,10.70
2018,06,27,05,38,10.70
2018,06,27,05,39,10.70
2018,06,27,05,40,10.70
2018,06,27,05,41,10.70
2018,06,27,05,42,10.70
2018,06,27,05,43,10.70
2018,06,27,05,44,10.70
2018,06,27,05,45,10.70
2018,06,27,05,46,10.70
2018,06,27,05,47,10.70
2018,06,27,05,48,10.70
2018,06,27,05,49,10.70
2018,06,27,05,50,10.70
2018,06,27,05,51,10.70
2018,06,27,05,52,10.70
2018,06,27,05,53,10.70
2018,06,27,05,54,10.70
2018,06,27,05,55,10.70
2018,06,27,05,56,10.70
2018,06,27,05,57,10.70
2018,06,27,05,58,10.70
2018,06,27,05,59,10.70
2018,06,27,06,00,10.70
2018,06,27,06,01,10.70
2018,06,27,06,02,10.70
2018,06,27,06,03,10.70
2018,06,27,06,04,10.70
2018,06,27,06,05,10.70
2018,06,27,06,06,10.70
2018,06,27,06,07,10.70
2018,06,27,06,08,10.70
2018,06,27,06,09,10.80
2018,06,27,06,10,10.80
2018,06,27,06,11,10.80
2018,06,27,06,12,10.80
2018,06,27,06,13,10.80
2018,06,27,06,14,10.80
2018,06,27,06,15,10.80
2018,06,27,06,16,10.80
2018,06,27,06,17,10.80
2018,06,27,06,18,10.80
2018,06,27,06,19,10.80
2018,06,27,06,20,10.80
2018,06,27,06,21,10.80
2018,06,27,06,22,10.80
2018,06,27,06,23,10.80
2018,06,27,06,24,10.80
2018,06,27,06,25,10.90
2018,06,27,06,26,10.90
2018,06,27,06,27,10.90
2018,06,27,06,28,10.90
2018,06,27,06,29,10.90
2018,06,27,06,30,10.90
2018,06,27,06,31,10.90
2018,06,27,06,32,10.90
2018,06,27,06,33,10.90
2018,06,27,06,34,10.90
2018,06,27,06,35,10.90
2018,06,27,06,36,10.90
2018,06,27,06,37,10.90
2018,06,27,06,38,10.90
2018,06,27,06,39,11.00
2018,06,27,06,40,10.90
2018,06,27,06,41,11.00
2018,06,27,06,42,11.00
2018,06,27,06,43,11.00
2018,06,27,06,44,11.00
2018,06,27,06,45,11.00
2018,06,27,06,46,11.00
2018,06,27,06,47,11.00
2018,06,27,06,48,11.10
2018,06,27,06,49,11.10
2018,06,27,06,50,11.10
2018,06,27,06,51,11.10
2018,06,27,06,52,11.20
2018,06,27,06,53,11.20
2018,06,27,06,54,11.20
2018,06,27,06,55,11.20
2018,06,27,06,56,11.20
2018,06,27,06,57,11.20
2018,06,27,06,58,11.20
2018,06,27,06,59,11.20
2018,06,27,07,00,11.20
2018,06,27,07,01,11.20
2018,06,27,07,02,11.20
2018,06,27,07,03,11.30
2018,06,27,07,04,11.30
2018,06,27,07,05,11.30
2018,06,27,07,06,11.30
2018,06,27,07,07,11.40
2018,06,27,07,08,11.40
2018,06,27,07,09,11.40
2018,06,27,07,10,11.40
2018,06,27,07,11,11.40
2018,06,27,07,12,11.50
2018,06,27,07,13,11.50
2018,06,27,07,14,11.50
2018,06,27,07,15,11.60
2018,06,27,07,16,11.60
2018,06,27,07,17,11.60
2018,06,27,07,18,11.60
2018,06,27,07,19,11.60
2018,06,27,07,20,11.60
2018,06,27,07,21,11.60
2018,06,27,07,22,11.60
2018,06,27,07,23,11.70
2018,06,27,07,24,11.70
2018,06,27,07,25,11.70
2018,06,27,07,26,11.70
2018,06,27,07,27,11.70
2018,06,27,07,28,11.70
2018,06,27,07,29,11.80
2018,06,27,07,30,11.80
2018,06,27,07,31,11.80
2018,06,27,07,32,11.80
2018,06,27,07,33,11.80
2018,06,27,07,34,11.90
2018,06,27,07,35,11.90
2018,06,27,07,36,11.90
2018,06,27,07,37,11.90
2018,06,27,07,38,11.90
2018,06,27,07,39,11.90
2018,06,27,07,40,12.00
2018,06,27,07,41,12.00
2018,06,27,07,42,12.00
2018,06,27,07,43,12.10
2018,06,27,07,44,12.10
2018,06,27,07,45,12.10
2018,06,27,07,46,12.10
2018,06,27,07,47,12.10
2018,06,27,07,48,12.10
2018,06,27,07,49,12.10
2018,06,27,07,50,12.10
2018,06,27,07,51,12.10
2018,06,27,07,52,12.10
2018,06,27,07,53,12.10
2018,06,27,07,54,12.10
2018,06,27,07,55,12.10
2018,06,27,07,56,12.10
2018,06,27,07,57,12.10
2018,06,27,07,58,12.10
2018,06,27,07,59,12.10
2018,06,27,08,00,12.10
2018,06,27,08,01,12.10
2018,06,27,08,02,12.10
2018,06,27,08,03,12.10
2018,06,27,08,04,12.10
2018,06,27,08,05,12.10
2018,06,27,08,06,12.10
2018,06,27,08,07,12.10
2018,06,27,08,08,12.10
2018,06,27,08,09,12.10
2018,06,27,08,10,12.10
2018,06,27,08,11,12.10
2018,06,27,08,12,12.20
2018,06,27,08,13,12.20
2018,06,27,08,14,12.20
2018,06,27,08,15,12.30
2018,06,27,08,16,12.30
2018,06,27,08,17,12.30
2018,06,27,08,18,12.30
2018,06,27,08,19,12.30
2018,06,27,08,20,12.30
2018,06,27,08,21,12.30
2018,06,27,08,22,12.30
2018,06,27,08,23,12.30
2018,06,27,08,24,12.30
2018,06,27,08,25,12.30
2018,06,27,08,26,12.30
2018,06,27,08,27,12.30
2018,06,27,08,28,12.30
2018,06,27,08,29,12.30
2018,06,27,08,30,12.30
2018,06,27,08,31,12.30
2018,06,27,08,32,12.30
2018,06,27,08,33,12.30
2018,06,27,08,34,12.40
2018,06,27,08,35,12.40
2018,06,27,08,36,12.30
2018,06,27,08,37,12.30
2018,06,27,08,38,12.40
2018,06,27,08,39,12.40
2018,06,27,08,40,12.40
2018,06,27,08,41,12.40
2018,06,27,08,42,12.40
2018,06,27,08,43,12.40
2018,06,27,08,44,12.40
2018,06,27,08,45,12.40
2018,06,27,08,46,12.50
2018,06,27,08,47,12.50
2018,06,27,08,48,12.60
2018,06,27,08,49,12.50
2018,06,27,08,50,12.60
2018,06,27,08,51,12.60
2018,06,27,08,52,12.60
2018,06,27,08,53,12.70
2018,06,27,08,54,12.80
2018,06,27,08,55,12.80
2018,06,27,08,56,12.90
2018,06,27,08,57,12.90
2018,06,27,08,58,12.90
2018,06,27,08,59,12.90
2018,06,27,09,00,13.00
2018,06,27,09,01,13.00
2018,06,27,09,02,13.10
2018,06,27,09,03,13.10
2018,06,27,09,04,13.10
2018,06,27,09,05,13.20
2018,06,27,09,06,13.30
2018,06,27,09,07,13.40
2018,06,27,09,08,13.50
2018,06,27,09,09,13.60
2018,06,27,09,10,13.70
2018,06,27,09,11,13.70
2018,06,27,09,12,13.70
2018,06,27,09,13,13.80
2018,06,27,09,14,13.80
2018,06,27,09,15,13.80
2018,06,27,09,16,13.80
2018,06,27,09,17,13.90
2018,06,27,09,18,13.90
2018,06,27,09,19,13.90
2018,06,27,09,20,13.90
2018,06,27,09,21,13.90
2018,06,27,09,22,14.00
2018,06,27,09,23,14.00
2018,06,27,09,24,14.00
2018,06,27,09,25,14.10
2018,06,27,09,26,14.10
2018,06,27,09,27,14.20
2018,06,27,09,28,14.30
2018,06,27,09,29,14.30
2018,06,27,09,30,14.40
2018,06,27,09,31,14.40
2018,06,27,09,32,14.40
2018,06,27,09,33,14.40
2018,06,27,09,34,14.40
2018,06,27,09,35,14.40
2018,06,27,09,36,14.40
2018,06,27,09,37,14.50
2018,06,27,09,38,14.60
2018,06,27,09,39,14.80
2018,06,27,09,40,14.90
2018,06,27,09,41,14.90
2018,06,27,09,42,15.00
2018,06,27,09,43,15.00
2018,06,27,09,44,15.10
2018,06,27,09,45,15.10
2018,06,27,09,46,15.10
2018,06,27,09,47,15.20
2018,06,27,09,48,15.20
2018,06,27,09,49,15.30
2018,06,27,09,50,15.20
2018,06,27,09,51,15.20
2018,06,27,09,52,15.20
2018,06,27,09,53,15.20
2018,06,27,09,54,15.20
2018,06,27,09,55,15.20
2018,06,27,09,56,15.20
2018,06,27,09,57,15.20
2018,06,27,09,58,15.20
2018,06,27,09,59,15.10
2018,06,27,10,00,15.10
2018,06,27,10,01,15.10
2018,06,27,10,02,15.10
2018,06,27,10,03,15.10
2018,06,27,10,04,15.20
2018,06,27,10,05,15.30
2018,06,27,10,06,15.40
2018,06,27,10,07,15.50
2018,06,27,10,08,15.50
2018,06,27,10,09,15.60
2018,06,27,10,10,15.70
2018,06,27,10,11,15.80
2018,06,27,10,12,15.80
2018,06,27,10,13,15.80
2018,06,27,10,14,15.70
2018,06,27,10,15,15.80
2018,06,27,10,16,15.80
2018,06,27,10,17,15.80
2018,06,27,10,18,15.90
2018,06,27,10,19,16.00
2018,06,27,10,20,16.10
2018,06,27,10,21,16.20
2018,06,27,10,22,16.30
2018,06,27,10,23,16.30
2018,06,27,10,24,16.30
2018,06,27,10,25,16.40
2018,06,27,10,26,16.40
2018,06,27,10,27,16.40
2018,06,27,10,28,16.50
2018,06,27,10,29,16.50
2018,06,27,10,30,16.60
2018,06,27,10,31,16.60
2018,06,27,10,32,16.60
2018,06,27,10,33,16.60
2018,06,27,10,34,16.70
2018,06,27,10,35,16.70
2018,06,27,10,36,16.60
2018,06,27,10,37,16.60
2018,06,27,10,38,16.60
2018,06,27,10,39,16.50
2018,06,27,10,40,16.50
2018,06,27,10,41,16.50
2018,06,27,10,42,16.40
2018,06,27,10,43,16.40
2018,06,27,10,44,16.40
2018,06,27,10,45,16.40
2018,06,27,10,46,16.40
2018,06,27,10,47,16.40
2018,06,27,10,48,16.50
2018,06,27,10,49,16.50
2018,06,27,10,50,16.60
2018,06,27,10,51,16.70
2018,06,27,10,52,16.80
2018,06,27,10,53,16.80
2018,06,27,10,54,16.90
2018,06,27,10,55,17.00
2018,06,27,10,56,17.10
2018,06,27,10,57,17.10
2018,06,27,10,58,17.10
2018,06,27,10,59,17.10
2018,06,27,11,00,17.20
2018,06,27,11,01,17.20
2018,06,27,11,02,17.20
2018,06,27,11,03,17.30
2018,06,27,11,04,17.30
2018,06,27,11,05,17.30
2018,06,27,11,06,17.30
2018,06,27,11,07,17.30
2018,06,27,11,08,17.30
2018,06,27,11,09,17.30
2018,06,27,11,10,17.20
2018,06,27,11,11,17.20
2018,06,27,11,12,17.20
2018,06,27,11,13,17.20
2018,06,27,11,14,17.20
2018,06,27,11,15,17.20
2018,06,27,11,16,17.20
2018,06,27,11,17,17.20
2018,06,27,11,18,17.20
2018,06,27,11,19,17.30
2018,06,27,11,20,17.30
2018,06,27,11,21,17.40
2018,06,27,11,22,17.50
2018,06,27,11,23,17.60
2018,06,27,11,24,17.70
2018,06,27,11,25,17.80
2018,06,27,11,26,17.90
2018,06,27,11,27,17.90
2018,06,27,11,28,18.00
2018,06,27,11,29,18.10
2018,06,27,11,30,18.20
2018,06,27,11,31,18.30
2018,06,27,11,32,18.30
2018,06,27,11,33,18.40
2018,06,27,11,34,18.50
2018,06,27,11,35,18.60
2018,06,27,11,36,18.60
2018,06,27,11,37,18.70
2018,06,27,11,38,18.70
2018,06,27,11,39,18.80
2018,06,27,11,40,18.80
2018,06,27,11,41,18.70
2018,06,27,11,42,18.70
2018,06,27,11,43,18.70
2018,06,27,11,44,18.70
2018,06,27,11,45,18.70
2018,06,27,11,46,18.70
2018,06,27,11,47,18.60
2018,06,27,11,48,18.70
2018,06,27,11,49,18.70
2018,06,27,11,50,18.70
2018,06,27,11,51,18.80
2018,06,27,11,52,18.80
2018,06,27,11,53,18.80
2018,06,27,11,54,18.80
2018,06,27,11,55,18.90
2018,06,27,11,56,18.90
2018,06,27,11,57,18.90
2018,06,27,11,58,18.90
2018,06,27,11,59,18.90
2018,06,27,12,00,18.90
2018,06,27,12,01,19.00
2018,06,27,12,02,19.00
2018,06,27,12,03,19.10
2018,06,27,12,04,19.20
2018,06,27,12,05,19.20
2018,06,27,12,06,19.30
2018,06,27,12,07,19.40
2018,06,27,12,08,19.50
2018,06,27,12,09,19.60
2018,06,27,12,10,19.60
2018,06,27,12,11,19.70
2018,06,27,12,12,19.70
2018,06,27,12,13,19.80
2018,06,27,12,14,19.80
2018,06,27,12,15,20.00
2018,06,27,12,16,20.00
2018,06,27,12,17,20.00
2018,06,27,12,18,20.00
2018,06,27,12,19,19.90
2018,06,27,12,20,19.90
2018,06,27,12,21,19.90
2018,06,27,12,22,20.00
2018,06,27,12,23,20.00
2018,06,27,12,24,20.00
2018,06,27,12,25,20.00
2018,06,27,12,26,20.00
2018,06,27,12,27,20.10
2018,06,27,12,28,20.10
2018,06,27,12,29,20.10
2018,06,27,12,30,20.20
2018,06,27,12,31,20.30
2018,06,27,12,32,20.30
2018,06,27,12,33,20.30
2018,06,27,12,34,20.30
2018,06,27,12,35,20.30
2018,06,27,12,36,20.30
2018,06,27,12,37,20.30
2018,06,27,12,38,20.20
2018,06,27,12,39,20.20
2018,06,27,12,40,20.10
2018,06,27,12,41,20.10
2018,06,27,12,42,20.10
2018,06,27,12,43,20.20
2018,06,27,12,44,20.30
2018,06,27,12,45,20.30
2018,06,27,12,46,20.30
2018,06,27,12,47,20.20
2018,06,27,12,48,20.20
2018,06,27,12,49,20.20
2018,06,27,12,50,20.20
2018,06,27,12,51,20.20
2018,06,27,12,52,20.10
2018,06,27,12,53,20.00
2018,06,27,12,54,20.00
2018,06,27,12,55,19.90
2018,06,27,12,56,19.90
2018,06,27,12,57,19.90
2018,06,27,12,58,19.90
2018,06,27,12,59,19.90
2018,06,27,13,00,20.00
2018,06,27,13,01,20.00
2018,06,27,13,02,20.10
2018,06,27,13,03,20.10
2018,06,27,13,04,20.20
2018,06,27,13,05,20.20
2018,06,27,13,06,20.20
2018,06,27,13,07,20.10
2018,06,27,13,08,20.10
2018,06,27,13,09,20.10
2018,06,27,13,10,20.10
2018,06,27,13,11,20.10
2018,06,27,13,12,20.10
2018,06,27,13,13,20.10
2018,06,27,13,14,20.20
2018,06,27,13,15,20.20
2018,06,27,13,16,20.20
2018,06,27,13,17,20.20
2018,06,27,13,18,20.30
2018,06,27,13,19,20.30
2018,06,27,13,20,20.40
2018,06,27,13,21,20.50
2018,06,27,13,22,20.60
2018,06,27,13,23,20.70
2018,06,27,13,24,20.80
2018,06,27,13,25,20.90
2018,06,27,13,26,21.00
2018,06,27,13,27,21.00
2018,06,27,13,28,21.10
2018,06,27,13,29,21.20
2018,06,27,13,30,21.20
2018,06,27,13,31,21.10
2018,06,27,13,32,21.00
2018,06,27,13,33,20.90
2018,06,27,13,34,20.90
2018,06,27,13,35,20.80
2018,06,27,13,36,20.90
2018,06,27,13,37,20.90
2018,06,27,13,38,21.00
2018,06,27,13,39,21.00
2018,06,27,13,40,21.10
2018,06,27,13,41,21.20
2018,06,27,13,42,21.20
2018,06,27,13,43,21.20
2018,06,27,13,44,21.20
2018,06,27,13,45,21.20
2018,06,27,13,46,21.10
2018,06,27,13,47,21.00
2018,06,27,13,48,21.00
2018,06,27,13,49,21.00
2018,06,27,13,50,21.00
2018,06,27,13,51,20.90
2018,06,27,13,52,20.80
2018,06,27,13,53,20.80
2018,06,27,13,54,20.70
2018,06,27,13,55,20.70
2018,06,27,13,56,20.70
2018,06,27,13,57,20.70
2018,06,27,13,58,20.70
2018,06,27,13,59,20.60
2018,06,27,14,00,20.60
2018,06,27,14,01,20.60
2018,06,27,14,02,20.50
2018,06,27,14,03,20.50
2018,06,27,14,04,20.50
2018,06,27,14,05,20.40
2018,06,27,14,06,20.40
2018,06,27,14,07,20.30
2018,06,27,14,08,20.30
2018,06,27,14,09,20.20
2018,06,27,14,10,20.20
2018,06,27,14,11,20.10
2018,06,27,14,12,20.00
2018,06,27,14,13,20.00
2018,06,27,14,14,19.90
2018,06,27,14,15,19.90
2018,06,27,14,16,19.90
2018,06,27,14,17,19.80
2018,06,27,14,18,19.80
2018,06,27,14,19,19.80
2018,06,27,14,20,19.80
2018,06,27,14,21,19.70
2018,06,27,14,22,19.70
2018,06,27,14,23,19.60
2018,06,27,14,24,19.60
2018,06,27,14,25,19.60
2018,06,27,14,26,19.50
2018,06,27,14,27,19.50
2018,06,27,14,28,19.50
2018,06,27,14,29,19.40
2018,06,27,14,30,19.40
2018,06,27,14,31,19.40
2018,06,27,14,32,19.40
2018,06,27,14,33,19.40
2018,06,27,14,34,19.40
2018,06,27,14,35,19.40
2018,06,27,14,36,19.40
2018,06,27,14,37,19.40
2018,06,27,14,38,19.40
2018,06,27,14,39,19.40
2018,06,27,14,40,19.40
2018,06,27,14,41,19.40
2018,06,27,14,42,19.40
2018,06,27,14,43,19.40
2018,06,27,14,44,19.40
2018,06,27,14,45,19.30
2018,06,27,14,46,19.30
2018,06,27,14,47,19.30
2018,06,27,14,48,19.30
2018,06,27,14,49,19.30
2018,06,27,14,50,19.30
2018,06,27,14,51,19.20
2018,06,27,14,52,19.20
2018,06,27,14,53,19.20
2018,06,27,14,54,19.20
2018,06,27,14,55,19.20
2018,06,27,14,56,19.20
2018,06,27,14,57,19.20
2018,06,27,14,58,19.20
2018,06,27,14,59,19.20
2018,06,27,15,00,19.20
2018,06,27,15,01,19.10
2018,06,27,15,02,19.10
2018,06,27,15,03,19.00
2018,06,27,15,04,18.90
2018,06,27,15,05,18.90
2018,06,27,15,06,18.80
2018,06,27,15,07,18.80
2018,06,27,15,08,18.70
2018,06,27,15,09,18.70
2018,06,27,15,10,18.70
2018,06,27,15,11,18.60
2018,06,27,15,12,18.60
2018,06,27,15,13,18.50
2018,06,27,15,14,18.50
2018,06,27,15,15,18.40
2018,06,27,15,16,18.40
2018,06,27,15,17,18.40
2018,06,27,15,18,18.30
2018,06,27,15,19,18.30
2018,06,27,15,20,18.30
2018,06,27,15,21,18.20
2018,06,27,15,22,18.20
2018,06,27,15,23,18.20
2018,06,27,15,24,18.20
2018,06,27,15,25,18.20
2018,06,27,15,26,18.10
2018,06,27,15,27,18.10
2018,06,27,15,28,18.10
2018,06,27,15,29,18.10
2018,06,27,15,30,18.10
2018,06,27,15,31,18.10
2018,06,27,15,32,18.00
2018,06,27,15,33,18.00
2018,06,27,15,34,18.00
2018,06,27,15,35,18.00
2018,06,27,15,36,18.00
2018,06,27,15,37,17.90
2018,06,27,15,38,17.90
2018,06,27,15,39,17.90
2018,06,27,15,40,17.90
2018,06,27,15,41,17.90
2018,06,27,15,42,17.90
2018,06,27,15,43,17.90
2018,06,27,15,44,17.80
2018,06,27,15,45,17.80
2018,06,27,15,46,17.80
2018,06,27,15,47,17.80
2018,06,27,15,48,17.70
2018,06,27,15,49,17.70
2018,06,27,15,50,17.70
2018,06,27,15,51,17.70
2018,06,27,15,52,17.70
2018,06,27,15,53,17.70
2018,06,27,15,54,17.60
2018,06,27,15,55,17.60
2018,06,27,15,56,17.60
2018,06,27,15,57,17.60
2018,06,27,15,58,17.60
2018,06,27,15,59,17.60
2018,06,27,16,00,17.50
2018,06,27,16,01,17.50
2018,06,27,16,02,17.50
2018,06,27,16,03,17.40
2018,06,27,16,04,17.40
2018,06,27,16,05,17.40
2018,06,27,16,06,17.40
2018,06,27,16,07,17.30
2018,06,27,16,08,17.30
2018,06,27,16,09,17.30
2018,06,27,16,10,17.30
2018,06,27,16,11,17.30
2018,06,27,16,12,17.30
2018,06,27,16,13,17.30
2018,06,27,16,14,17.30
2018,06,27,16,15,17.20
2018,06,27,16,16,17.20
2018,06,27,16,17,17.20
2018,06,27,16,18,17.20
2018,06,27,16,19,17.20
2018,06,27,16,20,17.20
2018,06,27,16,21,17.20
2018,06,27,16,22,17.20
2018,06,27,16,23,17.20
2018,06,27,16,24,17.20
2018,06,27,16,25,17.20
2018,06,27,16,26,17.20
2018,06,27,16,27,17.20
2018,06,27,16,28,17.20
2018,06,27,16,29,17.20
2018,06,27,16,30,17.20
2018,06,27,16,31,17.20
2018,06,27,16,32,17.20
2018,06,27,16,33,17.20
2018,06,27,16,34,17.20
2018,06,27,16,35,17.20
2018,06,27,16,36,17.20
2018,06,27,16,37,17.20
2018,06,27,16,38,17.30
2018,06,27,16,39,17.20
2018,06,27,16,40,17.20
2018,06,27,16,41,17.20
2018,06,27,16,42,17.20
2018,06,27,16,43,17.20
2018,06,27,16,44,17.20
2018,06,27,16,45,17.20
2018,06,27,16,46,17.20
2018,06,27,16,47,17.20
2018,06,27,16,48,17.20
2018,06,27,16,49,17.20
2018,06,27,16,50,17.20
2018,06,27,16,51,17.20
2018,06,27,16,52,17.20
2018,06,27,16,53,17.30
2018,06,27,16,54,17.30
2018,06,27,16,55,17.30
2018,06,27,16,56,17.30
2018,06,27,16,57,17.30
2018,06,27,16,58,17.30
2018,06,27,16,59,17.30
2018,06,27,17,00,17.30
2018,06,27,17,01,17.40
2018,06,27,17,02,17.40
2018,06,27,17,03,17.40
2018,06,27,17,04,17.40
2018,06,27,17,05,17.40
2018,06,27,17,06,17.40
2018,06,27,17,07,17.40
2018,06,27,17,08,17.40
2018,06,27,17,09,17.40
2018,06,27,17,10,17.50
2018,06,27,17,11,17.50
2018,06,27,17,12,17.50
2018,06,27,17,13,17.50
2018,06,27,17,14,17.50
2018,06,27,17,15,17.60
2018,06,27,17,16,17.60
2018,06,27,17,17,17.60
2018,06,27,17,18,17.60
2018,06,27,17,19,17.60